Home > Weather > Amravati > Past weeks

Flag for India Past Weather in Amravati, Maharashtra, India — Yesterday and Last 2 Weeks

Now
90 °F

Partly sunny.


Feels Like: 103 °F
Forecast: 77 / 90 °F
Wind: 2 mph from Southeast

Location: Nagpur Sonegaon

Current Time: Aug 28, 2016 at 7:41:01 PM

Latest Report: Aug 28, 2016 at 7:00 PM


Visibility: 2 mi

Pressure: 29.71 "Hg

Humidity: 67%

Dew Point: 77 °F

Location of AmravatiLocation

Past Weather in Amravati — Graph

°F

Amravati Temperature Yesterday

Maximum temperature yesterday: 91 °F (at 4:30 PM)
Minimum temperature yesterday: 79 °F (at 4:30 AM)
Average temperature yesterday: 83 °F

High & Low Weather Summary for the Past Weeks

 TemperatureHumidityPressure
High95 °F (Aug 25, 4:30 PM)94% (Aug 24, 6:30 AM)29.80 "Hg (Aug 24, 6:30 AM)
Low75 °F (Aug 17, 4:30 AM)33% (Aug 17, 12:30 PM)29.53 "Hg (Aug 16, 4:30 PM)
Average83 °F73%29.67 "Hg
* Reported Aug 13 6:30 PM — Aug 28 6:30 PM, Amravati, Weather by CustomWeather, © 2016

Note: Actual official high and low records may vary slightly from our data, if they occured in-between our weather recording intervals... More about our weather records

Advertising

Amravati Weather History for the Previous 24 Hours

Scroll right to see more
 ConditionsComfort  
Time TempWeatherWind HumidityBarometerVisibility
6:30 PM
Sun, Aug 28
91 °FPartly sunny.2 mph63%29.68 "Hg2 mi
6:00 PM91 °FHaze.3 mph63%29.68 "Hg2 mi
5:00 PM93 °FScattered clouds.No wind59%29.68 "Hg2 mi
4:30 PM93 °FScattered clouds.2 mph59%29.68 "Hg2 mi
4:00 PM93 °FScattered clouds.5 mph59%29.68 "Hg2 mi
3:30 PM93 °FScattered clouds.6 mph59%29.68 "Hg2 mi
3:00 PM91 °FScattered clouds.6 mph63%29.71 "Hg2 mi
2:30 PM91 °FScattered clouds.7 mph63%29.71 "Hg2 mi
2:00 PM91 °FScattered clouds.7 mph63%29.74 "Hg2 mi
1:00 PM90 °FScattered clouds.7 mph67%29.74 "Hg3 mi
12:30 PM90 °FScattered clouds.8 mph67%29.77 "Hg3 mi
12:00 PM90 °FScattered clouds.8 mph67%29.77 "Hg3 mi
11:30 AM90 °FScattered clouds.8 mph63%29.77 "Hg3 mi
11:00 AM90 °FScattered clouds.2 mph67%29.77 "Hg3 mi
10:30 AM90 °FScattered clouds.2 mph67%29.77 "Hg3 mi
9:30 AM86 °FScattered clouds.3 mph75%29.80 "Hg2 mi
9:00 AM84 °FScattered clouds.6 mph84%29.80 "Hg1 mi
8:30 AM84 °FHaze.5 mph79%29.80 "Hg1 mi
7:30 AM82 °FScattered clouds.No wind89%29.77 "Hg1 mi
7:00 AM81 °FFog.2 mph94%29.77 "Hg1 mi
6:30 AM81 °FFog.2 mph89%29.74 "Hg1 mi
6:00 AM79 °FFog.No wind94%29.74 "Hg1 mi
4:30 AM81 °FPassing clouds.No wind89%29.74 "Hg2 mi
3:30 AM81 °FHaze.No wind89%29.74 "Hg2 mi
1:30 AM81 °FHaze.No wind84%29.74 "Hg2 mi
12:30 AM81 °FHaze.No wind89%29.74 "Hg2 mi
12:00 AM81 °FHaze.No wind89%29.74 "Hg2 mi
11:30 PM
Sat, Aug 27
81 °FHaze.2 mph89%29.74 "Hg2 mi
11:00 PM82 °FPassing clouds.2 mph84%29.77 "Hg2 mi
10:30 PM82 °FPassing clouds.2 mph84%29.77 "Hg2 mi
9:30 PM82 °FPassing clouds.2 mph84%29.74 "Hg2 mi
9:00 PM82 °FPassing clouds.2 mph84%29.74 "Hg2 mi
8:30 PM84 °FPassing clouds.No wind79%29.71 "Hg2 mi
8:00 PM84 °FPassing clouds.No wind79%29.71 "Hg2 mi
7:30 PM84 °FPassing clouds.No wind79%29.68 "Hg2 mi
7:00 PM86 °FScattered clouds.No wind75%29.65 "Hg3 mi
Weather by CustomWeather, © 2016

See weather overviewHow to use our weather pages